Weather History for Hermiston, OR

Change the Weather History Date:

Tuesday, October 16, 2012

  Actual Average Record
Temperature  
Mean Temperature 57 °F -  
Max Temperature 64 °F 65 °F 83 °F (1963)
Min Temperature 50 °F 36 °F 21 °F (1999)
Degree Days  
Heating Degree Days 8    
Growing Degree Days 7 (Base 50)    
Moisture  
Dew Point 47 °F    
Average Humidity 66    
Maximum Humidity 94    
Minimum Humidity 40    
Precipitation  
Precipitation 0.24 in - - ()
Sea Level Pressure  
Sea Level Pressure 29.87 in    
Wind  
Wind Speed 14 mph (WSW)    
Max Wind Speed 30 mph    
Max Gust Speed 39 mph    
Visibility 9 miles    
Events Rain    
Averages and records for this station are not official NWS values.
T = Trace of Precipitation, MM = Missing Value Source: NWS Daily Summary

Daily Weather History Graph

Daily Weather History Graph

Search for Another Location

Airport:

Trip Planner

Search our weather history database for the weather conditions in past years. The results will help you decide how hot, cold, wet, or windy it might be!

Date:

Astronomy

Oct. 16, 2012 Rise Set
Actual Time 7:15 AM PDT 6:08 PM PDT
Civil Twilight 6:45 AM PDT 6:38 PM PDT
Nautical Twilight 6:11 AM PDT 7:12 PM PDT
Astronomical Twilight 5:36 AM PDT 7:47 PM PDT
Moon 8:51 AM PDT (10/16) 6:48 PM PDT (10/16)
Length of Visible Light 11h 52m
Length of Day
10h 52m
New Moon, 2% of the Moon is Illuminated
Oct 16
New Moon
Oct 21
First Quarter
Oct 29
Full
Nov 6
Last Quarter
Nov 13
New

Hourly Weather History & Observations

Time (PDT) Temp. Dew Point Humidity Pressure Visibility Wind Dir Wind Speed Gust Speed Precip Events Conditions
12:53 AM 63.0 °F 60.1 °F 90% 29.58 in 10.0 mi SSW 5.8 mph - 0.01 in   Overcast
1:53 AM 63.0 °F 60.1 °F 90% 29.57 in 10.0 mi SW 3.5 mph - N/A   Overcast
2:46 AM 62.6 °F 60.8 °F 94% 29.60 in 1.8 mi WSW 13.8 mph 19.6 mph 0.12 in Rain Heavy Rain
2:53 AM 63.0 °F 61.0 °F 93% 29.58 in 2.5 mi WSW 10.4 mph 19.6 mph 0.13 in Rain Rain
3:00 AM 62.6 °F 60.8 °F 94% 29.59 in 9.0 mi West 9.2 mph - 0.00 in Rain Light Rain
3:26 AM 62.6 °F 60.8 °F 94% 29.59 in 2.5 mi West 15.0 mph 23.0 mph 0.10 in Rain Heavy Rain
3:34 AM 62.6 °F 60.8 °F 94% 29.59 in 9.0 mi West 15.0 mph 21.9 mph 0.10 in Rain Light Rain
3:53 AM 63.0 °F 61.0 °F 93% 29.59 in 10.0 mi West 10.4 mph - 0.10 in   Overcast
5:53 AM 59.0 °F 48.9 °F 69% 29.69 in 10.0 mi WSW 20.7 mph 34.5 mph N/A   Clear
6:53 AM 57.0 °F 46.9 °F 69% 29.75 in 10.0 mi WSW 19.6 mph 33.4 mph N/A   Clear
7:53 AM 55.0 °F 45.0 °F 69% 29.81 in 10.0 mi WSW 21.9 mph 32.2 mph N/A   Clear
8:53 AM 55.9 °F 45.0 °F 67% 29.86 in 10.0 mi WSW 21.9 mph 34.5 mph N/A   Clear
9:53 AM 59.0 °F 43.0 °F 55% 29.90 in 10.0 mi WSW 21.9 mph 35.7 mph N/A   Clear
10:53 AM 60.1 °F 39.0 °F 46% 29.94 in 10.0 mi WSW 28.8 mph 39.1 mph N/A   Clear
11:53 AM 61.0 °F 37.0 °F 41% 29.98 in 10.0 mi West 29.9 mph 38.0 mph N/A   Clear
12:53 PM 62.1 °F 37.9 °F 41% 30.01 in 10.0 mi WSW 23.0 mph 32.2 mph N/A   Clear
1:53 PM 63.0 °F 39.0 °F 41% 30.01 in 10.0 mi WSW 23.0 mph 33.4 mph N/A   Clear
2:53 PM 63.0 °F 37.9 °F 40% 30.02 in 10.0 mi WSW 24.2 mph 31.1 mph N/A   Clear
3:53 PM 62.1 °F 37.9 °F 41% 30.04 in 10.0 mi WSW 19.6 mph 32.2 mph N/A   Clear
4:53 PM 60.1 °F 37.9 °F 44% 30.05 in 10.0 mi WSW 23.0 mph 29.9 mph N/A   Clear
5:53 PM 57.0 °F 37.9 °F 49% 30.09 in 10.0 mi West 21.9 mph 33.4 mph N/A   Clear
6:53 PM 55.0 °F 37.9 °F 53% 30.12 in 10.0 mi WSW 17.3 mph 25.3 mph N/A   Clear
7:53 PM 53.1 °F 39.0 °F 59% 30.13 in 10.0 mi WSW 15.0 mph 23.0 mph N/A   Clear
8:53 PM 53.1 °F 39.0 °F 59% 30.17 in 10.0 mi WSW 18.4 mph 25.3 mph N/A   Clear
10:53 PM 51.1 °F 39.0 °F 63% 30.18 in 10.0 mi WSW 10.4 mph - N/A   Unknown
11:53 PM 50.0 °F 39.0 °F 66% 30.20 in 10.0 mi WSW 12.7 mph - N/A   Clear